Weather History for Ypsilanti, MI

Change the Weather History Date:

Monday, May 7, 2012

  Actual Average Record
Temperature  
Mean Temperature 60 °F -  
Max Temperature 66 °F 69 °F 84 °F (2000)
Min Temperature 53 °F 45 °F 28 °F (1974)
Degree Days  
Heating Degree Days 6    
Growing Degree Days 10 (Base 50)    
Moisture  
Dew Point 52 °F    
Average Humidity 76    
Maximum Humidity 88    
Minimum Humidity 38    
Precipitation  
Precipitation 0.33 in - - ()
Sea Level Pressure  
Sea Level Pressure 29.87 in    
Wind  
Wind Speed 4 mph (ESE)    
Max Wind Speed 8 mph    
Max Gust Speed -    
Visibility 7 miles    
Events Rain    
Averages and records for this station are not official NWS values.
T = Trace of Precipitation, MM = Missing Value Source: NWS Daily Summary

Daily Weather History Graph

Daily Weather History Graph

Search for Another Location

Airport:

Trip Planner

Search our weather history database for the weather conditions in past years. The results will help you decide how hot, cold, wet, or windy it might be!

Date:

Astronomy

May. 07, 2012 Rise Set
Actual Time 6:21 AM EDT 8:40 PM EDT
Civil Twilight 5:50 AM EDT 9:11 PM EDT
Nautical Twilight 5:11 AM EDT 9:50 PM EDT
Astronomical Twilight 4:28 AM EDT 10:33 PM EDT
Moon 10:53 PM EDT (5/7) 7:24 AM EDT (5/7)
Length of Visible Light 15h 21m
Length of Day
14h 19m
Waning Gibbous, 97% of the Moon is Illuminated
May 7
Waning Gibbous
May 12
Last Quarter
May 20
New
May 28
First Quarter
Jun 4
Full

Hourly Weather History & Observations

Time (EDT) Temp. Dew Point Humidity Pressure Visibility Wind Dir Wind Speed Gust Speed Precip Events Conditions
12:53 AM 60.1 °F 39.0 °F 46% 29.99 in 10.0 mi East 6.9 mph - 0.00 in   Mostly Cloudy
1:53 AM 60.1 °F 41.0 °F 49% 29.95 in 10.0 mi ENE 8.1 mph - N/A   Overcast
2:53 AM 61.0 °F 35.1 °F 38% 29.93 in 10.0 mi East 8.1 mph - N/A   Overcast
3:53 AM 60.1 °F 37.9 °F 44% 29.96 in 10.0 mi South 4.6 mph - 0.00 in   Overcast
4:53 AM 54.0 °F 46.9 °F 77% 29.95 in 9.0 mi Calm Calm - 0.04 in Rain Light Rain
5:53 AM 53.1 °F 46.0 °F 77% 29.94 in 9.0 mi ENE 3.5 mph - 0.07 in Rain Light Rain
6:53 AM 54.0 °F 46.9 °F 77% 29.93 in 10.0 mi East 5.8 mph - 0.00 in   Overcast
7:53 AM 53.1 °F 46.0 °F 77% 29.93 in 10.0 mi East 6.9 mph - 0.03 in Rain Light Rain
8:09 AM 53.6 °F 46.4 °F 77% 29.93 in 10.0 mi East 5.8 mph - 0.01 in Rain Light Rain
8:17 AM 53.6 °F 46.4 °F 77% 29.93 in 10.0 mi ENE 3.5 mph - 0.01 in Rain Light Rain
8:53 AM 53.1 °F 48.0 °F 83% 29.92 in 3.0 mi East 5.8 mph - 0.08 in Rain Rain
9:53 AM 54.0 °F 48.9 °F 83% 29.90 in 8.0 mi East 5.8 mph - 0.05 in Rain Light Rain
10:15 AM 55.4 °F 50.0 °F 82% 29.89 in 10.0 mi ENE 4.6 mph - 0.00 in Rain Light Rain
10:53 AM 57.0 °F 52.0 °F 83% 29.90 in 9.0 mi ENE 5.8 mph - 0.00 in   Overcast
11:53 AM 57.9 °F 53.1 °F 84% 29.91 in 9.0 mi South 3.5 mph - 0.01 in Rain Light Rain
12:53 PM 59.0 °F 53.1 °F 81% 29.90 in 7.0 mi Calm Calm - 0.00 in   Overcast
1:53 PM 61.0 °F 55.0 °F 81% 29.87 in 7.0 mi ESE 8.1 mph - N/A   Overcast
2:53 PM 64.0 °F 57.0 °F 78% 29.85 in 9.0 mi East 4.6 mph - N/A   Overcast
3:53 PM 64.0 °F 57.0 °F 78% 29.85 in 9.0 mi Calm Calm - N/A   Overcast
4:03 PM 64.4 °F 57.2 °F 77% 29.86 in 9.0 mi SSE 3.5 mph - N/A   Overcast
4:53 PM 64.9 °F 57.0 °F 75% 29.84 in 9.0 mi Calm Calm - N/A   Overcast
5:53 PM 64.9 °F 57.0 °F 75% 29.83 in 8.0 mi Calm Calm - N/A   Overcast
6:28 PM 66.2 °F 57.2 °F 73% 29.81 in 9.0 mi NNW 4.6 mph - N/A   Partly Cloudy
6:53 PM 66.0 °F 57.9 °F 75% 29.80 in 8.0 mi Calm Calm - N/A   Partly Cloudy
7:53 PM 64.9 °F 57.9 °F 78% 29.79 in 7.0 mi Calm Calm - N/A   Overcast
8:53 PM 64.0 °F 57.9 °F 80% 29.79 in 8.0 mi Calm Calm - N/A   Overcast
9:53 PM 64.0 °F 57.9 °F 80% 29.81 in 7.0 mi Calm Calm - N/A   Overcast
10:49 PM 64.4 °F 57.2 °F 77% 29.82 in 6.0 mi Calm Calm - N/A   Haze
10:53 PM 63.0 °F 57.9 °F 84% 29.81 in 6.0 mi Calm Calm - N/A   Haze
11:22 PM 62.6 °F 59.0 °F 88% 29.82 in 3.0 mi Calm Calm - 0.01 in Rain Light Rain
11:30 PM 62.6 °F 59.0 °F 88% 29.82 in 2.0 mi SE 3.5 mph - 0.04 in Rain Rain
11:34 PM 62.6 °F 59.0 °F 88% 29.82 in 1.8 mi SSE 3.5 mph - 0.04 in Rain Light Rain
11:41 PM 62.6 °F 59.0 °F 88% 29.81 in 2.0 mi Calm Calm - 0.04 in Rain Light Rain
11:51 PM 62.6 °F 59.0 °F 88% 29.81 in 2.0 mi South 3.5 mph - 0.05 in Rain Light Rain
11:53 PM 63.0 °F 59.0 °F 87% 29.81 in 2.0 mi South 3.5 mph - 0.05 in Rain Light Rain